EW2957 Weather Reports


time (UTC)temp
F
wind
direction
speed
knots
gust
knots
rain 1hr
in
rain 24hr
in
rain mn
in
humidity
%
barometer
mb
20260505093004 55 112 0.0 0.0 0.00 0.00 0.00 86 1011.9
20260505091501 55 161 0.0 0.0 0.00 0.00 0.00 86 1011.7
20260505084549 56 161 0.0 0.0 0.00 0.00 0.00 85 1011.5
20260505083049 56 157 0.0 0.0 0.00 0.00 0.00 84 1011.4
20260505081555 57 147 0.0 0.0 0.00 0.00 0.00 83 1011.4
20260505080046 57 202 0.0 0.0 0.00 0.00 0.00 82 1011.3
20260505074550 58 148 0.0 0.0 0.00 0.00 0.00 81 1011.2
20260505073034 58 197 0.0 0.0 0.00 0.00 0.00 80 1011.1
20260505071531 59 159 0.0 0.0 0.00 0.00 0.00 80 1010.9
20260505070030 59 159 0.0 0.0 0.00 0.00 0.00 80 1010.7
20260505064508 60 148 0.0 0.0 0.00 0.00 0.00 78 1010.6
20260505063006 60 144 0.0 0.0 0.00 0.00 0.00 77 1010.5
20260505061617 61 155 0.0 0.0 0.00 0.00 0.00 75 1010.3
20260505060052 63 122 0.0 1.7 0.00 0.00 0.00 73 1010.1
20260505054602 63 178 0.0 0.0 0.00 0.00 0.00 72 1010.0
20260505053046 64 194 0.0 0.0 0.00 0.00 0.00 71 1009.8
20260505051546 64 238 0.0 0.0 0.00 0.00 0.00 70 1009.6
20260505041534 69 178 0.0 0.0 0.00 0.00 0.00 62 1008.9
20260505040038 69 204 0.0 0.0 0.00 0.00 0.00 60 1008.7
20260505034532 70 217 0.0 0.0 0.00 0.00 0.00 58 1008.5
20260505033044 71 261 0.0 0.0 0.00 0.00 0.00 56 1008.3
20260505031531 73 321 0.0 0.0 0.00 0.00 0.00 53 1008.2
20260505030031 75 338 0.0 0.0 0.00 0.00 0.00 51 1008.0
20260505024551 76 338 0.0 0.0 0.00 0.00 0.00 48 1007.8
20260505023037 77 338 0.0 0.0 0.00 0.00 0.00 46 1007.7
20260505021544 78 5 0.0 0.0 0.00 0.00 0.00 45 1007.7
20260505020018 78 355 0.0 0.0 0.00 0.00 0.00 47 1007.7
20260505014522 78 79 0.0 0.0 0.00 0.00 0.00 45 1007.6
20260505013016 79 139 0.0 0.0 0.00 0.00 0.00 42 1007.6
20260505011518 80 167 0.0 0.0 0.00 0.00 0.00 41 1007.6
20260505010014 79 160 0.0 0.0 0.00 0.00 0.00 40 1007.7
20260505004521 80 134 0.0 0.0 0.00 0.00 0.00 40 1007.7
20260505003011 80 150 0.0 0.0 0.00 0.00 0.00 39 1007.9
20260505001511 80 203 0.0 0.0 0.00 0.00 0.00 39 1007.8
20260505000057 79 154 0.0 0.0 0.00 0.00 0.00 40 1007.9
20260504234553 80 147 0.0 0.0 0.00 0.00 0.00 40 1008.0
20260504233054 80 168 0.0 0.0 0.00 0.00 0.00 40 1008.0
20260504231539 78 136 0.0 0.0 0.00 0.00 0.00 41 1008.0
20260504230038 80 155 0.0 0.0 0.00 0.00 0.00 40 1008.0
20260504224537 81 138 0.0 0.0 0.00 0.00 0.00 38 1008.2
20260504223037 81 236 0.0 0.0 0.00 0.00 0.00 38 1008.4
20260504221538 81 115 0.0 0.0 0.00 0.00 0.00 40 1008.6
20260504220033 80 170 0.0 0.0 0.00 0.00 0.00 40 1008.8
20260504214530 80 153 0.0 0.0 0.00 0.00 0.00 40 1008.9
20260504213014 78 138 0.0 0.0 0.00 0.00 0.00 44 1008.9
20260504211511 77 96 0.0 0.0 0.00 0.00 0.00 42 1009.0
20260504210010 77 138 0.0 0.0 0.00 0.00 0.00 44 1009.2
20260504204516 76 118 0.0 0.0 0.00 0.00 0.00 44 1009.2
20260504203008 77 118 0.0 0.0 0.00 0.00 0.00 46 1009.2
20260504201505 76 86 0.0 0.0 0.00 0.00 0.00 43 1009.2
20260504200003 75 123 0.0 0.0 0.00 0.00 0.00 44 1009.3
20260504194504 75 119 0.0 0.0 0.00 0.00 0.00 44 1009.2
20260504193050 75 125 0.0 0.0 0.00 0.00 0.00 46 1009.3
20260504191548 75 128 0.0 0.0 0.00 0.00 0.00 46 1009.4
20260504190046 74 103 0.0 2.6 0.00 0.00 0.00 47 1009.4
20260504184543 73 153 0.0 0.9 0.00 0.00 0.00 51 1009.7
20260504183037 72 168 0.0 0.9 0.00 0.00 0.00 54 1009.6
20260504181535 71 132 0.0 0.0 0.00 0.00 0.00 56 1009.7
20260504180031 70 107 0.0 0.0 0.00 0.00 0.00 58 1009.7
20260504174529 70 150 0.0 0.0 0.00 0.00 0.00 59 1009.7
20260504173014 69 123 0.0 0.0 0.00 0.00 0.00 61 1009.7
20260504171511 68 148 0.0 0.9 0.00 0.00 0.00 63 1009.8